This is the latest recevied weather packets stored in our database for station/object SQ7IQO. If no packets are shown the sender has not sent any weather packets the latest 10 day(s).
| Time | Temp. | Humidity | Pressure | Rain* | Wind** | Luminosity | Snow |
|---|---|---|---|---|---|---|---|
| 1788103844 | 26.67° C | 44% | 1014.9 hPa | 0 mm | 0.45 m/s, ° | - | - |
| 1788103784 | 26.67° C | 46% | 1014.9 hPa | 0 mm | 0 m/s | - | - |
| 1788103724 | 26.11° C | 47% | 1015 hPa | 0 mm | 0 m/s | - | - |
| 1788103664 | 26.11° C | 46% | 1015 hPa | 0 mm | 0 m/s | - | - |
| 1788103544 | 26.11° C | 47% | 1015 hPa | 0 mm | 0 m/s | - | - |
| 1788103484 | 25.56° C | 47% | 1015 hPa | 0 mm | 0 m/s | - | - |
| 1788103423 | 25.56° C | 47% | 1015 hPa | 0 mm | 0 m/s | - | - |
| 1788103363 | 25.56° C | 47% | 1015.1 hPa | 0 mm | 0.45 m/s, ° | - | - |
| 1788103303 | 25.56° C | 47% | 1015.1 hPa | 0 mm | 0.45 m/s, ° | - | - |
| 1788103243 | 25.56° C | 47% | 1015.1 hPa | 0 mm | 0.45 m/s, ° | - | - |
| 1788103184 | 25.56° C | 47% | 1015.1 hPa | 0 mm | 0.45 m/s, ° | - | - |
| 1788103124 | 25.56° C | 47% | 1015.1 hPa | 0 mm | 0 m/s | - | - |
| 1788103064 | 26.11° C | 46% | 1015 hPa | 0 mm | 0 m/s | - | - |
| 1788103004 | 26.11° C | 46% | 1015.1 hPa | 0 mm | 0 m/s | - | - |
| 1788102944 | 26.11° C | 45% | 1015 hPa | 0 mm | 0 m/s | - | - |
| 1788102884 | 26.11° C | 46% | 1015 hPa | 0 mm | 0 m/s | - | - |
| 1788102824 | 26.67° C | 45% | 1013.6 hPa | 0 mm | 0 m/s | - | - |
| 1788102764 | 26.67° C | 44% | - | 0 mm | 0 m/s | - | - |
| 1788102704 | 26.67° C | 44% | 1015 hPa | 0 mm | 0.45 m/s, ° | - | - |
| 1788102643 | 27.22° C | 44% | 1015 hPa | 0 mm | 0 m/s | - | - |
| 1788102584 | 27.22° C | 43% | 1015 hPa | 0 mm | 0.89 m/s, ° | - | - |
| 1788102524 | 27.78° C | 43% | 1015 hPa | 0 mm | 0.45 m/s, ° | - | - |
| 1788102464 | 27.78° C | 42% | 1277.1 hPa | 0 mm | 0.89 m/s, ° | - | - |
| 1788102404 | 28.33° C | 42% | 1015 hPa | 0 mm | 0.45 m/s, ° | - | - |
| 1788102344 | 28.89° C | 40% | 1015 hPa | 0 mm | 0.45 m/s, ° | - | - |
* Rain latest hour (hover to see other rain measurements)
** Current wind speed in m/s (hover to see current wind gust speed)